Location: Alt?nova Orta
(36.9295°N, 30.7847°E)
Time: 03:36:51
(UTC+00:00)

Daily predictions for brighter satellites

Satellite Brightness Start Highest point End
(mag) Time Altitude Azimuth Time Altitude Azimuth Time Altitude Azimuth
SL-16 R/B 4.4 01:17:45 20° ENE 01:17:45 20° ENE 01:19:47 10° NE
USA 229 DEB 4.3 01:48:18 50° NNE 01:49:46 58° NE 01:57:15 10° SE
USA 229 4.3 01:48:21 50° NNE 01:49:51 58° NE 01:57:19 10° SE
ATLAS CENTAUR R/B 4.0 02:06:56 16° NNE 02:06:56 16° NNE 02:07:55 10° NNE
USA 267 4.0 01:59:28 10° SSE 02:03:36 40° SSE 02:03:36 40° SSE
Cosmos 1934 Rocket 4.1 02:04:40 10° N 02:10:59 73° E 02:17:19 10° SSE
H-2A R/B 4.0 02:08:44 10° NNE 02:11:59 37° ENE 02:11:59 37° ENE
Cosmos 2237 Rocket 4.4 02:21:12 13° N 02:21:12 13° N 02:21:56 10° N
Cosmos 2251 Rocket 4.4 02:20:40 40° NNE 02:20:40 40° NNE 02:24:01 10° NNE
Cosmos 1605 Rocket 4.2 02:24:48 10° N 02:31:01 67° E 02:37:05 10° SSE
BREEZE-M DEB (TANK) 4.4 02:33:04 63° SSW 02:33:04 63° SSW 02:43:07 10° SE
STARLINK-1055 4.4 02:36:33 46° NE 02:36:33 46° NE 02:40:24 10° ESE
GEOS 3 Rocket 3.8 02:35:28 10° NNE 02:40:18 54° NW 02:40:18 54° NW
Cosmos 1408 Rocket 3.7 02:39:04 27° N 02:41:21 69° E 02:45:43 10° SSE
Cosmos 2221 3.6 02:37:20 10° SSE 02:41:22 43° E 02:45:26 10° NNE
STARLINK-1022 4.2 02:41:20 51° NE 02:41:23 51° NE 02:45:26 10° ESE
Meteor 2-10 Rocket 4.3 02:46:07 37° NNW 02:46:07 37° NNW 02:49:31 10° N
STARLINK-1042 4.0 02:46:08 55° NNE 02:46:23 57° NE 02:50:27 10° ESE
STARLINK-1056 3.9 02:50:54 57° N 02:51:22 63° NE 02:55:28 10° ESE
Cosmos 1727 Rocket 4.0 02:45:17 10° S 02:51:28 78° E 02:57:39 10° N
NOSS 3-1 (C) 4.1 02:49:15 27° NW 02:53:53 62° WSW 03:02:31 10° SSE
STARLINK-1054 3.8 02:55:41 57° NNW 02:56:21 69° NE 03:00:28 10° SE
Cosmos 1943 Rocket 3.1 02:52:27 10° N 02:57:46 47° ENE 03:03:02 10° SE
Cosmos 2297 3.6 02:55:30 34° NW 02:57:53 62° WSW 03:03:24 10° S
SL-16 R/B 3.0 02:59:39 31° NW 02:59:39 31° NW 03:03:56 10° N
Lacrosse 4 Rocket 3.4 03:03:29 17° SSW 03:03:29 17° SSW 03:04:44 10° S
Cosmos 1339 Rocket 4.4 02:55:17 10° SSW 03:01:12 54° W 03:07:10 10° N
STARLINK-1062 3.6 03:00:28 53° NNW 03:01:20 77° NE 03:05:28 10° SE
Lacrosse 5 3.5 02:59:21 13° NNW 03:03:14 31° NE 03:07:42 10° E
STARLINK-1053 3.5 03:05:14 49° NW 03:06:17 84° NE 03:10:26 10° SE
Cosmos 292 Rocket 3.6 03:04:52 20° NNW 03:08:07 70° WSW 03:12:49 10° S
Cosmos 407 Rocket 3.8 03:04:23 10° S 03:09:42 72° ESE 03:15:00 10° NNE
CZ-2C R/B 3.7 03:05:32 10° N 03:08:21 24° NW 03:08:21 24° NW
STARLINK-1061 3.5 03:10:02 44° NW 03:11:17 87° SW 03:15:25 10° SE
SKYMED 2 3.6 03:09:36 10° SSE 03:13:55 79° ENE 03:18:16 10° N
IUS-17 SRM-1 4.3 03:14:06 15° S 03:14:36 16° SSE 03:16:46 10° SE
Cosmos 1603 3.6 03:09:03 10° SSW 03:14:47 88° WNW 03:20:31 10° NNE
STARLINK-1067 3.5 03:14:47 39° NW 03:16:14 79° SW 03:20:22 10° SE
Cosmos 1140 Rocket 4.1 03:11:46 10° S 03:16:52 58° ESE 03:22:02 10° NNE
Cosmos 2369 Rocket 2.9 03:12:27 10° NNW 03:18:04 55° ENE 03:23:39 10° SE
FENGYUN 3A 3.6 03:12:51 10° NNE 03:18:19 87° WNW 03:23:45 10° SSW
Cosmos 2100 Rocket 4.4 03:13:30 10° N 03:19:41 65° E 03:25:46 10° SSE
STARLINK-1058 3.5 03:19:34 35° WNW 03:21:12 71° SW 03:25:19 10° SE
Cosmos 1943 3.2 03:16:28 10° SSW 03:22:04 82° ESE 03:27:43 10° NNE
CZ-4B DEB 4.3 03:17:55 10° NNE 03:23:25 81° ESE 03:28:52 10° SSW
STARLINK-1043 3.6 03:24:20 31° WNW 03:26:09 64° SW 03:30:15 10° SE
Meteor 2-3 Rocket 3.7 03:20:41 10° NNW 03:26:22 63° W 03:32:04 10° S
Cosmos 1500 Rocket 3.4 03:23:01 10° N 03:27:28 77° W 03:31:50 10° S
Okean O Rocket 2.4 03:23:26 10° NNE 03:27:43 53° E 03:31:57 10° S
STARLINK-1065 3.7 03:28:47 28° WNW 03:30:46 57° SW 03:34:48 10° SSE
Cosmos 1190 Rocket 3.9 03:26:19 10° SSW 03:31:34 84° WNW 03:36:53 10° NNE
STARLINK-1098 3.7 03:31:21 12° SW 03:34:57 73° SE 03:38:55 10° NE
CZ-4B R/B 3.6 03:29:57 10° NNE 03:35:15 64° ESE 03:40:28 10° S
STARLINK-1063 3.8 03:33:55 24° WNW 03:36:05 51° SW 03:40:05 10° SSE
Meteor 2-2 Rocket 4.3 03:31:15 10° SSW 03:37:14 72° W 03:43:16 10° N
Cosmos 1743 Rocket 3.7 03:34:39 10° NNW 03:38:50 49° W 03:43:00 10° SSW
Cosmos 1459 Rocket 4.0 03:33:04 10° N 03:39:15 86° E 03:45:32 10° S
STARLINK-1123 3.5 03:35:38 11° SW 03:39:24 81° SE 03:43:23 10° NE
STARLINK-1070 3.0 03:38:53 30° W 03:39:55 46° NW 03:42:45 10° NE
STARLINK-1124 3.4 03:39:55 29° WNW 03:40:44 36° NW 03:43:28 10° NNE
STARLINK-1066 3.0 03:39:57 29° W 03:41:02 45° NW 03:43:51 10° NE
STARLINK-1064 4.0 03:38:42 22° WNW 03:41:03 45° SW 03:45:00 10° SSE
STARLINK-1081 3.0 03:40:10 28° W 03:41:16 44° NW 03:44:05 10° NE
STARLINK-1069 3.1 03:40:36 28° W 03:41:43 44° NW 03:44:32 10° NE
STARLINK-1085 3.1 03:40:48 28° W 03:41:56 44° NW 03:44:45 10° NE
STARLINK-1086 3.1 03:41:01 27° W 03:42:09 43° NW 03:44:58 10° NE
STARLINK-1095 3.1 03:41:14 27° W 03:42:24 43° NW 03:45:12 10° NE
STARLINK-1077 3.1 03:41:28 27° W 03:42:38 43° NW 03:45:26 10° NE
STARLINK-1075 3.1 03:41:41 27° W 03:42:51 42° NW 03:45:40 10° NE
Cosmos 1484 Rocket 3.9 03:39:47 10° NNW 03:42:56 23° WNW 03:44:58 16° WSW
STARLINK-1093 3.1 03:41:54 27° W 03:43:04 42° NW 03:45:52 10° NE
STARLINK-1074 3.1 03:42:07 26° W 03:43:17 42° NW 03:46:06 10° NE
STARLINK-1087 3.1 03:42:19 26° W 03:43:31 42° NW 03:46:19 10° NE
STARLINK-1088 3.1 03:42:33 26° W 03:43:44 41° NW 03:46:32 10° NE
ALOS 2.6 03:39:25 10° N 03:43:49 42° WNW 03:48:11 10° SW
STARLINK-1097 3.5 03:39:56 10° SW 03:43:52 89° SE 03:47:52 10° NE
STARLINK-1115 3.2 03:42:44 26° W 03:43:57 41° NW 03:46:45 10° NE
STARLINK-1076 3.2 03:42:58 26° W 03:44:11 41° NW 03:46:59 10° NE
STARLINK-1092 3.2 03:43:11 25° W 03:44:24 41° NW 03:47:12 10° NE
STARLINK-1080 3.2 03:43:25 25° W 03:44:38 40° NW 03:47:26 10° NE
Cosmos 614 Rocket 4.2 03:39:47 10° SW 03:44:41 45° WNW 03:49:40 10° N
STARLINK-1090 3.2 03:43:37 25° W 03:44:51 40° NW 03:47:39 10° NNE
STARLINK-1089 3.2 03:43:50 25° W 03:45:04 40° NW 03:47:52 10° NNE
STARLINK-1107 3.2 03:44:04 25° W 03:45:18 40° NW 03:48:05 10° NNE
STARLINK-1109 3.2 03:44:16 25° W 03:45:32 40° NW 03:48:19 10° NNE
STARLINK-1091 3.2 03:44:29 24° W 03:45:47 39° NW 03:48:33 10° NNE
STARLINK-1072 3.2 03:44:42 24° W 03:45:59 39° NW 03:48:46 10° NNE
STARLINK-1041 4.1 03:43:27 19° WNW 03:46:00 41° SW 03:49:53 10° SSE
Cosmos 2084 3.7 03:41:39 10° SSW 03:46:08 76° ESE 03:50:38 10° NE
STARLINK-1096 3.2 03:44:56 24° W 03:46:13 39° NW 03:48:58 10° NNE
STARLINK-1079 3.3 03:45:08 24° W 03:46:26 39° NW 03:49:13 10° NNE
STARLINK-1116 3.3 03:45:21 23° W 03:46:41 38° NW 03:49:27 10° NNE
STARLINK-1094 3.3 03:45:46 23° W 03:47:06 38° NW 03:49:53 10° NNE
STARLINK-1117 3.3 03:45:59 23° W 03:47:20 38° NW 03:50:06 10° NNE
STARLINK-1078 3.3 03:46:13 23° W 03:47:34 38° NW 03:50:20 10° NNE
STARLINK-1108 3.3 03:46:25 23° W 03:47:47 37° NW 03:50:33 10° NNE
STARLINK-1071 3.3 03:46:39 22° W 03:48:00 37° NW 03:50:46 10° NNE
H-2A R/B 4.1 03:45:17 10° NNW 03:48:03 17° WNW 03:48:34 16° WNW
STARLINK-1110 3.3 03:46:52 22° W 03:48:14 37° NW 03:51:01 10° NNE
STARLINK-1099 3.4 03:44:22 10° SW 03:48:20 83° NW 03:52:20 10° NE
Cosmos 676 Rocket 4.2 03:43:18 10° SSW 03:48:36 82° ESE 03:53:57 10° NNE
STARLINK-1122 3.3 03:47:18 22° W 03:48:41 37° NW 03:51:27 10° NNE
STARLINK-1126 3.4 03:47:30 22° W 03:48:55 36° NW 03:51:40 10° NNE
STARLINK-1082 3.4 03:47:44 22° W 03:49:09 36° NW 03:51:54 10° NNE
STARLINK-1100 3.4 03:47:57 21° W 03:49:22 36° NW 03:52:07 10° NNE
STARLINK-1083 3.4 03:48:10 21° W 03:49:35 36° NW 03:52:20 10° NNE
STARLINK-1125 3.4 03:48:23 21° W 03:49:50 36° NW 03:52:33 10° NNE
STARLINK-1038 4.3 03:48:14 17° WNW 03:50:56 36° SW 03:54:44 10° SSE
Cosmos 1802 Rocket 4.1 03:45:49 10° N 03:52:17 89° E 03:58:42 10° S
STARLINK-1104 3.4 03:48:51 10° SW 03:52:50 76° NW 03:56:49 10° NE
PAYLOAD B 4.3 03:50:08 10° N 03:55:37 60° WNW 04:01:03 10° SSW
STARLINK-1046 4.5 03:53:01 15° WNW 03:55:53 33° SW 03:59:36 10° SSE
ATLAS 2A CENTAUR R/B 3.5 03:54:22 10° SSW 03:56:21 14° S 03:59:38 10° SE
STARLINK-1118 3.7 03:55:26 18° WNW 03:56:36 25° NW 03:58:51 10° NNE
STARLINK-1144 3.5 03:53:23 10° SW 03:57:21 69° NW 04:01:20 10° NE
STARLINK-1103 3.5 03:57:54 10° WSW 04:01:51 62° NW 04:05:48 10° NE
COSMO-SKYMED 1 3.5 03:58:19 10° SSW 04:02:02 28° W 04:05:46 10° NW
Cosmos 1633 2.6 03:59:28 10° NNW 04:03:02 57° W 04:06:36 10° S
NOAA 6 4.1 03:59:31 10° N 04:04:36 58° WNW 04:09:38 10° SSW
STARLINK-1101 3.6 04:02:30 10° WSW 04:06:25 56° NW 04:10:21 10° NE
USA 116 3.8 04:05:23 10° SSW 04:08:28 34° W 04:11:24 10° NNW
Shenzhou-11 Module 2.1 04:06:33 11° W 04:08:55 45° NNW 04:11:30 10° ENE
STARLINK-1128 3.7 04:05:21 10° WSW 04:09:12 51° NW 04:13:03 10° NE
Aureole 2 Rocket 2.2 04:07:41 10° NNW 04:10:40 54° WSW 04:13:47 10° S
STARLINK-1102 3.7 04:07:00 10° WSW 04:10:54 51° NW 04:14:48 10° NE
DELTA 2 R/B (1) 3.9 04:07:39 10° WSW 04:13:11 69° SSE 04:18:43 10° ENE
STARLINK-1113 3.8 04:09:42 10° WSW 04:13:31 47° NW 04:17:20 10° NE
Cosmos 921 Rocket 3.1 04:10:11 10° NNW 04:14:32 56° WSW 04:18:45 10° S
STARLINK-1111 3.9 04:11:36 10° WSW 04:15:27 47° NW 04:19:20 10° NE
Cosmos 1633 Rocket 3.6 04:11:23 10° N 04:15:43 63° E 04:20:03 10° SSE
Cosmos 1666 Rocket 3.7 04:11:57 10° N 04:16:24 81° E 04:20:47 10° S
STARLINK-1119 3.9 04:14:04 10° WSW 04:17:50 43° NW 04:21:38 10° NE
Cosmos 2221 4.2 04:17:13 10° W 04:19:10 13° WNW 04:21:07 10° NW
YAOGAN 6 4.4 04:16:40 10° NNE 04:19:57 37° E 04:23:15 10° SSE
STARLINK-1073 4.0 04:16:11 10° WSW 04:19:59 43° NW 04:23:50 10° NE
Cosmos 1400 Rocket 2.9 04:16:59 10° SSW 04:20:52 56° W 04:24:51 10° N
Cosmos 2016 Rocket 4.1 04:17:27 10° NNW 04:23:36 62° W 04:29:48 10° S
